SL-16 R/B (19650 NORAD) Tracking and Keplerian Element Data

This shows tracking and keplerian element data for the satellite.

Feedback or suggestion? Click here.




ElementValue
Catalog19650
NameSL-16 R/B
Epoch Orbit71259
Epoch Day15.78576446
Epoch Year2022
RAAN95.8848
Inclination71.0004
Eccentricity0.0013453
Argument of Perigee165.2631
Mean Anonmoly194.8887
Mean Motion14.15816167
Decay Rate-2.77E-06
L11 19650U 88102B 22015.78576446 -.00000277 00000+0 -11638-3 0 9996
L22 19650 71.0004 95.8848 0013453 165.2631 194.8887 14.15816167712596

Live tracking and technical data element details for SL-16 R/B (NORAD 19650). SL-16 R/B can be tracked NOW for your location showing map with azimuth and elevation plus other details from your city location.

Track the satellite on the map from your city or location and see movement details for azimuth, elevation, latitude, longitude, range, height, and movement on the map or in text.







IsCatalogInMostPopularTable: catalog: 19650, numindb: 322
Update: records affected: 1



GetName: 19650 SL-16 R/B

Hit Count: updated at: Mon, 17 Jan 2022 00:49:15 GMT